User: anonymous   Login
Location: Firdgum
(53.2488°N, 5.5615°E)
Time: 09:32:20
(UTC+00:00)
Language:

STARLINK-1032 - Orbit

View from above orbital plane
View from above orbital plane
View from above satellite
View from above satellite

Ground track
Ground track

The orbit data is extracted from the following two-line orbital elements,

1 44737C 19074AA  20056.18995569 -.00005225  00000-0 -35776-3 0   562
2 44737  53.0010  22.9920 0001873  65.7982  20.3075 15.05596814    18
Epoch (UTC): 25 February 2020 04:33:32
Eccentricity: 0.0001873
inclination: 53.0010°
perigee height: 548 km
apogee height: 551 km
right ascension of ascending node: 22.9920°
argument of perigee: 65.7982°
revolutions per day: 15.05596814
mean anomaly at epoch: 20.3075°
orbit number at epoch: 1

The dashed part of the orbit path shows where the satellite is in the earth's shadow,  

DLR